Location: Podia
(1.5569°N, 32.3469°E)
Time: 11:35:46
(UTC+00:00)

Vanguard 3 - All Passes

Search period start: 26 September 2020 00:00
Search period end: 06 October 2020 00:00
Orbit: 508 x 3262 km, 33.3° (Epoch: 25 September)

Date Brightness Start Highest point End Pass type
(mag) Time Alt. Az. Time Alt. Az. Time Alt. Az.
26 Sep - 00:05:40 10° W 00:17:01 32° SSW 00:32:57 10° SSE visible
26 Sep - 02:27:27 10° SW 02:38:12 17° S 02:49:35 10° SSE visible
26 Sep - 04:51:03 10° SSW 05:01:49 17° S 05:11:05 10° SE daylight
26 Sep - 07:08:06 10° SSW 07:21:48 31° SSE 07:30:49 10° E daylight
26 Sep - 09:24:26 10° SW 09:37:16 83° SE 09:44:07 10° ENE daylight
26 Sep - 11:44:01 10° W 11:49:01 18° NW 11:52:44 10° N daylight
26 Sep - 18:31:56 10° NNE 18:33:19 11° NE 18:34:49 10° NE night (unlit)
26 Sep - 20:37:57 10° NW 20:45:09 67° NE 20:58:26 10° ESE night (unlit)
26 Sep - 22:49:58 10° W 22:59:50 44° SSW 23:15:53 10° SE visible
27 Sep - 01:07:58 10° WSW 01:18:53 21° SSW 01:32:08 10° SSE visible
27 Sep - 03:32:00 10° SSW 03:42:08 16° S 03:51:51 10° SSE daylight
27 Sep - 05:50:57 10° SSW 06:04:20 24° SSE 06:14:24 10° ESE daylight
27 Sep - 08:07:09 10° SW 08:21:55 53° SSE 08:30:20 10° ENE daylight
27 Sep - 10:25:03 10° WSW 10:35:13 44° NW 10:41:07 10° NNE daylight
27 Sep - 19:25:29 10° NNW 19:30:59 33° NE 19:39:54 10° ESE night (unlit)
27 Sep - 21:35:33 10° WNW 21:43:45 64° SSW 21:58:36 10° SE visible
27 Sep - 23:50:24 10° WSW 00:00:38 27° SSW 00:14:55 10° SSE visible
28 Sep - 02:12:15 10° SW 02:22:08 16° S 02:32:42 10° SSE visible
28 Sep - 04:33:30 10° SSW 04:45:43 19° SSE 04:56:14 10° SE daylight
28 Sep - 06:50:00 10° SW 07:05:31 37° SSE 07:15:30 10° E daylight
28 Sep - 09:06:56 10° SW 09:20:51 83° NW 09:28:20 10° NE daylight
28 Sep - 11:28:01 10° WNW 11:32:47 16° NW 11:36:26 10° N daylight
28 Sep - 18:14:58 10° NNE 18:17:09 12° NE 18:19:41 10° ENE night (unlit)
28 Sep - 20:22:05 10° NW 20:28:43 79° NE 20:41:05 10° ESE night (unlit)
28 Sep - 22:34:31 10° W 22:43:29 36° SSW 22:57:50 10° SE visible
29 Sep - 00:53:04 10° SW 01:02:43 18° SSW 01:14:22 10° SSE visible
29 Sep - 03:15:33 10° SSW 03:26:06 16° S 03:36:23 10° SE visible
29 Sep - 05:32:57 10° SSW 05:48:02 28° SSE 05:59:17 10° ESE daylight
29 Sep - 07:49:16 10° SW 08:05:30 64° SSE 08:14:40 10° ENE daylight
29 Sep - 10:08:09 10° WSW 10:18:48 38° NW 10:25:07 10° NNE daylight
29 Sep - 19:09:28 10° NNW 19:14:38 38° NE 19:23:12 10° ESE night (unlit)
29 Sep - 21:19:55 10° WNW 21:27:26 53° SSW 21:40:48 10° SE visible
29 Sep - 23:35:23 10° WSW 23:44:25 23° SSW 23:56:47 10° SSE visible
30 Sep - 01:57:01 10° SSW 02:06:07 15° S 02:15:59 10° SSE visible
30 Sep - 04:15:57 10° SSW 04:29:28 22° SSE 04:41:11 10° ESE daylight
30 Sep - 06:31:58 10° SW 06:49:02 45° SSE 06:59:59 10° E daylight
30 Sep - 08:49:28 10° WSW 09:04:19 72° NW 09:12:26 10° NE daylight
30 Sep - 11:12:05 10° WNW 11:16:32 14° NW 11:20:04 10° N daylight
30 Sep - 17:58:21 10° N 18:00:59 14° NE 18:04:11 10° ENE night (unlit)
30 Sep - 20:06:18 10° WNW 20:12:25 86° SW 20:23:44 10° SE night (unlit)
30 Sep - 22:19:17 10° W 22:27:18 29° SSW 22:39:43 10° SSE visible
01 Oct - 00:38:24 10° SW 00:46:41 16° S 00:56:33 10° SSE visible
01 Oct - 02:58:54 10° SSW 03:10:01 17° S 03:20:59 10° SE visible
01 Oct - 05:15:02 10° SSW 05:31:32 33° SSE 05:43:55 10° E daylight
01 Oct - 07:31:27 10° SW 07:48:52 75° SE 07:58:51 10° ENE daylight
01 Oct - 09:51:16 10° W 10:02:18 34° NW 10:09:03 10° NNE daylight
01 Oct - 18:53:31 10° NNW 18:58:23 45° NE 19:06:30 10° ESE night (unlit)
01 Oct - 21:04:28 10° W 21:11:16 41° SSW 21:22:58 10° SE night (unlit)
01 Oct - 23:20:40 10° SW 23:28:22 19° SSW 23:38:31 10° SSE visible
02 Oct - 01:41:38 10° SSW 01:50:09 15° S 01:59:27 10° SSE visible
02 Oct - 03:58:26 10° SSW 04:13:04 24° SSE 04:25:57 10° ESE daylight
02 Oct - 06:14:02 10° SW 06:32:20 52° SSE 06:44:16 10° ENE daylight
02 Oct - 08:32:01 10° WSW 08:47:38 63° NW 08:56:26 10° NE daylight
02 Oct - 10:56:15 10° WNW 11:00:19 13° NW 11:03:37 10° NNW daylight
02 Oct - 17:41:55 10° N 17:44:50 16° NE 17:48:30 10° E visible
02 Oct - 19:50:38 10° WNW 19:56:15 68° SSW 20:06:24 10° SE night (unlit)
02 Oct - 22:04:18 10° WSW 22:11:16 23° SSW 22:21:31 10° SSE visible
03 Oct - 00:23:57 10° SSW 00:30:45 14° S 00:38:41 10° SSE visible
03 Oct - 02:42:08 10° SSW 02:53:49 18° SSE 03:05:35 10° SE visible
03 Oct - 04:57:13 10° SSW 05:14:50 38° SSE 05:28:20 10° E daylight
03 Oct - 07:13:41 10° SW 07:32:05 85° SE 07:42:54 10° ENE daylight
03 Oct - 09:34:25 10° W 09:45:45 30° NW 09:52:54 10° NNE daylight
03 Oct - 18:37:37 10° NW 18:42:11 57° NE 18:49:47 10° ESE night (unlit)
03 Oct - 20:49:12 10° W 20:55:16 32° SSW 21:05:07 10° SSE night (unlit)
03 Oct - 23:06:21 10° SW 23:12:26 15° S 23:20:03 10° SSE visible
04 Oct - 01:26:02 10° SSW 01:34:11 14° S 01:43:10 10° SE visible
04 Oct - 03:40:58 10° SSW 03:56:30 28° SSE 04:10:29 10° ESE daylight
04 Oct - 05:56:12 10° SW 06:15:29 60° SSE 06:28:22 10° ENE daylight
04 Oct - 08:14:37 10° WSW 08:30:51 55° NW 08:40:20 10° NE daylight
04 Oct - 10:40:31 10° WNW 10:44:05 12° NW 10:47:07 10° NNW daylight
04 Oct - 17:25:35 10° N 17:28:41 20° NE 17:32:41 10° E visible
04 Oct - 19:35:05 10° WNW 19:40:13 51° SSW 19:49:03 10° SE night (unlit)
04 Oct - 21:49:40 10° SW 21:55:22 18° SSW 22:03:09 10° SSE visible
05 Oct - 00:09:47 10° SSW 00:14:54 12° S 00:20:42 10° SSE visible
05 Oct - 02:25:16 10° SSW 02:37:30 20° SSE 02:50:07 10° ESE visible
05 Oct - 04:39:31 10° SW 04:57:57 43° SSE 05:12:31 10° E daylight
05 Oct - 06:56:01 10° SW 07:15:07 85° NW 07:26:49 10° NE daylight
05 Oct - 09:17:39 10° W 09:29:10 28° NW 09:36:43 10° NNE daylight
05 Oct - 18:21:47 10° NW 18:26:06 75° NE 18:33:05 10° ESE visible
05 Oct - 20:34:09 10° WSW 20:39:22 24° SSW 20:47:12 10° SSE night (unlit)
05 Oct - 22:52:48 10° SSW 22:56:37 12° S 23:01:01 10° SSE visible
